This demonstration page uses our WeatherBlox Daily Observations layout. Learn more.

Left ArrowRight Arrow

Hourly Observations for March 15, 2020

Temp ( °F °C ) Dew Point ( °F °C ) Humidity (%) Winds ( mph kmh ) Pressure ( in mb ) Visibility ( mi km ) Precip ( " mm )
12:15 am 00:15 Cloudy 32 0.2 31 -0.6 94 94 NE 14 22 30.48 1032 10 16 N/A
12:35 am 00:35 Cloudy 32 0.2 31 -0.7 94 94 NE 9 15 30.49 1033 10 16 N/A
12:55 am 00:55 Cloudy 32 0.2 30 -1 92 92 NE 13 20 30.48 1032 10 16 N/A
1:15 am 01:15 Cloudy 32 0.1 30 -1 92 92 NE 9 15 30.48 1032 10 16 N/A
1:35 am 01:35 Cloudy 32 undefined 30 -1.1 92 92 NE 9 15 30.48 1032 10 16 N/A
1:55 am 01:55 Cloudy 32 undefined 30 -1.1 92 92 N N/A 30.49 1033 10 16 N/A
2:15 am 02:15 Cloudy 32 0.1 30 -1.2 91 91 ENE 9 15 30.50 1033 10 16 N/A
2:35 am 02:35 Cloudy 32 0.1 29 -1.5 89 89 NE 9 15 30.51 1033 10 16 N/A
2:55 am 02:55 Cloudy 32 0.1 29 -1.5 89 89 NE 13 20 30.52 1034 10 16 N/A
3:15 am 03:15 Cloudy 32 0.1 29 -1.5 89 89 NE 10 17 30.52 1034 10 16 N/A
3:35 am 03:35 Cloudy 32 0.1 29 -1.5 89 89 NE 13 20 30.52 1034 10 16 N/A
3:55 am 03:55 Cloudy 32 0.2 29 -1.6 88 88 NE 13 20 30.52 1034 10 16 N/A
4:15 am 04:15 Cloudy 32 0.2 29 -1.6 88 88 NE 14 22 30.52 1034 10 16 N/A
4:35 am 04:35 Cloudy 32 0.1 29 -1.4 90 90 NE 8 13 30.52 1034 10 16 N/A
4:55 am 04:55 Cloudy 32 undefined 29 -1.6 89 89 NE 10 17 30.53 1034 10 16 N/A
5:15 am 05:15 Cloudy 32 undefined 29 -1.7 88 88 NE 10 17 30.52 1034 10 16 N/A
5:35 am 05:35 Cloudy 32 undefined 29 -1.7 88 88 NE 7 11 30.52 1034 10 16 N/A
5:55 am 05:55 Cloudy 32 undefined 29 -1.7 88 88 NE 9 15 30.53 1034 10 16 N/A
6:15 am 06:15 Cloudy 32 undefined 29 -1.7 88 88 NE 9 15 30.53 1034 10 16 N/A
6:35 am 06:35 Cloudy 32 undefined 29 -1.6 89 89 NE 9 15 30.53 1034 10 16 N/A
6:55 am 06:55 Cloudy 32 undefined 29 -1.9 87 87 NE 9 15 30.54 1034 10 16 N/A
7:15 am 07:15 Cloudy 32 undefined 29 -1.9 87 87 NE 12 19 30.54 1034 10 16 N/A
7:35 am 07:35 Cloudy 32 undefined 29 -1.8 88 88 ENE 3 6 30.55 1035 10 16 N/A
7:55 am 07:55 Cloudy 32 undefined 28 -2 87 87 NE 7 11 30.56 1035 10 16 N/A
8:15 am 08:15 Cloudy 32 undefined 28 -2 87 87 ENE 12 19 30.56 1035 10 16 N/A
8:35 am 08:35 Cloudy 32 undefined 28 -2.1 86 86 ENE 13 20 30.56 1035 10 16 N/A
8:55 am 08:55 Cloudy 32 undefined 28 -2.1 86 86 NE 13 20 30.57 1035 10 16 N/A
9:15 am 09:15 Cloudy 32 undefined 28 -2.2 85 85 NE 14 22 30.59 1036 10 16 N/A
9:35 am 09:35 Cloudy 32 0.1 28 -2.2 85 85 NE 14 22 30.59 1036 10 16 N/A
9:55 am 09:55 Cloudy 32 0.2 28 -2.3 84 84 NE 12 19 30.59 1036 10 16 N/A
10:15 am 10:15 Cloudy 33 0.5 28 -2.4 81 81 ENE 9 15 30.60 1036 10 16 N/A
10:35 am 10:35 Mostly Cloudy 34 0.9 28 -2.4 79 79 ENE 12 19 30.60 1036 10 16 N/A
10:55 am 10:55 Partly Cloudy 33 0.7 28 -2.2 81 81 ENE 10 17 30.61 1037 10 16 N/A
11:15 am 11:15 Mostly Cloudy 35 1.8 29 -1.8 77 77 ENE 10 17 30.62 1037 10 16 N/A
11:35 am 11:35 Cloudy 35 1.5 29 -1.8 79 79 NE 8 13 30.62 1037 10 16 N/A
11:55 am 11:55 Cloudy 35 1.8 29 -1.5 79 79 NE 8 13 30.62 1037 10 16 N/A
12:15 pm 12:15 Mostly Cloudy 37 2.7 30 -1.1 76 76 E 9 15 30.60 1036 10 16 N/A
12:35 pm 12:35 Mostly Cloudy 38 3.2 31 -0.3 78 78 NNE 8 13 30.60 1036 10 16 N/A
12:55 pm 12:55 Mostly Cloudy 38 3.3 31 -0.5 76 76 ENE 7 11 30.60 1036 10 16 N/A
1:15 pm 13:15 Mostly Cloudy 38 3.2 31 -0.5 77 77 NE 9 15 30.60 1036 10 16 N/A
1:35 pm 13:35 Mostly Cloudy 38 3.5 31 -0.4 76 76 ENE 9 15 30.59 1036 10 16 N/A
3:15 pm 15:15 Mostly Cloudy N/A N/A N/A NNE 13 20 N/A 10 16 N/A
3:35 pm 15:35 Mostly Cloudy 43 5.9 32 0.1 67 67 ENE 9 15 30.52 1034 10 16 N/A
3:55 pm 15:55 Mostly Cloudy 42 5.3 32 undefined 69 69 NE 8 13 30.53 1034 10 16 N/A
4:15 pm 16:15 Partly Cloudy 43 5.9 32 undefined 66 66 E 9 15 30.52 1034 10 16 N/A
4:35 pm 16:35 Mostly Cloudy 43 6 32 undefined 66 66 E 5 7 30.52 1034 10 16 N/A
4:55 pm 16:55 Mostly Cloudy 43 5.9 32 -0.2 65 65 ENE 8 13 30.51 1033 10 16 N/A
5:15 pm 17:15 Mostly Cloudy 42 5.8 32 0.1 67 67 E 12 19 30.51 1033 10 16 N/A
5:35 pm 17:35 Cloudy 42 5.3 32 undefined 69 69 ENE 9 15 30.52 1033 10 16 N/A
5:55 pm 17:55 Cloudy 41 5.2 32 -0.2 68 68 ENE 9 15 30.52 1033 10 16 N/A
6:15 pm 18:15 Cloudy 42 5.3 32 -0.1 68 68 ENE 12 19 30.51 1033 10 16 N/A
6:35 pm 18:35 Cloudy 41 5 31 -0.5 68 68 ENE 6 9 30.52 1033 10 16 N/A
6:55 pm 18:55 Cloudy 41 4.8 32 undefined 71 71 E 9 15 30.53 1034 10 16 N/A
7:15 pm 19:15 Cloudy 40 4.5 32 -0.1 72 72 ESE 5 7 30.52 1033 10 16 N/A
7:40 pm 19:40 Cloudy 40 4.3 31 -0.4 72 72 E 10 17 30.52 1033 10 16 N/A
7:55 pm 19:55 Cloudy 40 4.2 30 -1 69 69 E 8 13 30.53 1034 10 16 N/A
8:15 pm 20:15 Cloudy 39 4.1 30 -1 70 70 N N/A 30.52 1034 10 16 N/A
8:35 pm 20:35 Cloudy 39 4.1 31 -0.8 71 71 N N/A 30.52 1034 10 16 N/A
8:50 pm 20:50 Cloudy 39 4.1 31 -0.7 71 71 N N/A 30.51 1033 10 16 N/A
9:15 pm 21:15 Cloudy 39 4 32 -0.2 74 74 N N/A 30.51 1033 10 16 N/A
9:35 pm 21:35 Cloudy 39 4.1 31 -0.5 72 72 N N/A 30.52 1034 10 16 N/A
9:55 pm 21:55 Cloudy 39 4 32 -0.1 75 75 N N/A 30.51 1033 10 16 N/A
10:15 pm 22:15 Cloudy 39 4 32 -0.2 74 74 N N/A 30.51 1033 10 16 N/A
10:35 pm 22:35 Cloudy 39 3.9 32 -0.1 75 75 N N/A 30.51 1033 10 16 N/A
10:55 pm 22:55 Cloudy 39 3.8 33 0.3 78 78 N N/A 30.52 1034 10 16 N/A
11:15 pm 23:15 Cloudy 39 4 32 undefined 75 75 N N/A 30.51 1033 10 16 N/A

Powered by AerisWeather